| time (UTC) | temp C | wind direction | speed KPH | gust KPH | rain 1hr cm | rain 24hr cm | rain mn cm | humidity % | barometer mb |
| 20260507023430 | 9 | 203 | 4.8 | 6.4 | 0.00 | 0.00 | 0.00 | ||
| 20260507022927 | 8 | 240 | 8.0 | 8.0 | 0.00 | 0.00 | 0.00 | ||
| 20260507022429 | 9 | 280 | 8.0 | 3.2 | 0.00 | 0.00 | 0.00 | ||
| 20260507021930 | 9 | 187 | 4.8 | 9.7 | 0.00 | 0.00 | 0.00 | ||
| 20260507021431 | 9 | 190 | 6.4 | 9.7 | 0.00 | 0.00 | 0.00 | ||
| 20260507020933 | 9 | 181 | 9.7 | 8.0 | 0.00 | 0.00 | 0.00 | ||
| 20260507020431 | 9 | 174 | 9.7 | 9.7 | 0.00 | 0.00 | 0.00 | ||
| 20260507015932 | 9 | 177 | 6.4 | 6.4 | 0.00 | 0.00 | 0.00 | ||
| 20260507014935 | 9 | 163 | 8.0 | 6.4 | 0.00 | 0.00 | 0.00 | ||
| 20260507014436 | 9 | 181 | 8.0 | 6.4 | 0.00 | 0.00 | 0.00 | ||
| 20260507013436 | 9 | 174 | 4.8 | 6.4 | 0.00 | 0.00 | 0.00 | ||
| 20260507012937 | 10 | 205 | 3.2 | 6.4 | 0.00 | 0.00 | 0.00 | ||
| 20260507011940 | 9 | 246 | 1.6 | 1.6 | 0.00 | 0.00 | 0.00 | ||
| 20260507011438 | 9 | 210 | 4.8 | 8.0 | 0.00 | 0.00 | 0.00 | ||
| 20260507010939 | 9 | 172 | 0.0 | 0.0 | 0.00 | 0.00 | 0.00 | ||
| 20260507010440 | 10 | 193 | 0.0 | 0.0 | 0.00 | 0.00 | 0.00 | ||
| 20260507005442 | 9 | 194 | 4.8 | 4.8 | 0.00 | 0.00 | 0.00 | ||
| 20260507004941 | 9 | 134 | 3.2 | 1.6 | 0.00 | 0.00 | 0.00 | ||
| 20260507003944 | 9 | 210 | 6.4 | 6.4 | 0.00 | 0.00 | 0.00 | ||
| 20260507002445 | 10 | 228 | 12.9 | 9.7 | 0.00 | 0.00 | 0.00 | ||
| 20260507001947 | 10 | 249 | 11.3 | 20.9 | 0.00 | 0.00 | 0.00 | ||
| 20260507001448 | 10 | 218 | 4.8 | 4.8 | 0.00 | 0.00 | 0.00 | ||
| 20260507000949 | 10 | 204 | 11.3 | 8.0 | 0.00 | 0.00 | 0.00 | ||
| 20260507000451 | 10 | 201 | 11.3 | 8.0 | 0.00 | 0.00 | 0.00 | ||
| 20260506235948 | 10 | 186 | 9.7 | 4.8 | 0.00 | 0.00 | 0.00 | ||
| 20260506235450 | 10 | 193 | 8.0 | 4.8 | 0.00 | 0.00 | 0.00 | ||
| 20260506234951 | 10 | 200 | 11.3 | 11.3 | 0.00 | 0.00 | 0.00 | ||
| 20260506234453 | 10 | 218 | 4.8 | 9.7 | 0.00 | 0.00 | 0.00 | ||
| 20260506233954 | 10 | 203 | 4.8 | 12.9 | 0.00 | 0.00 | 0.00 | ||
| 20260506233451 | 10 | 191 | 9.7 | 14.5 | 0.00 | 0.00 | 0.00 | ||
| 20260506232951 | 10 | 228 | 6.4 | 6.4 | 0.00 | 0.00 | 0.00 | ||
| 20260506231953 | 10 | 173 | 6.4 | 3.2 | 0.00 | 0.00 | 0.00 | ||
| 20260506231455 | 10 | 238 | 4.8 | 9.7 | 0.00 | 0.00 | 0.00 | ||
| 20260506230953 | 10 | 217 | 8.0 | 12.9 | 0.00 | 0.00 | 0.00 | ||
| 20260506225457 | 10 | 208 | 8.0 | 4.8 | 0.00 | 0.00 | 0.00 | ||
| 20260506224959 | 10 | 197 | 8.0 | 8.0 | 0.00 | 0.00 | 0.00 | ||
| 20260506224456 | 10 | 200 | 12.9 | 6.4 | 0.00 | 0.00 | 0.00 | ||
| 20260506223459 | 10 | 212 | 8.0 | 6.4 | 0.00 | 0.00 | 0.00 | ||
| 20260506222502 | 10 | 207 | 11.3 | 8.0 | 0.00 | 0.00 | 0.00 | ||
| 20260506221959 | 10 | 177 | 6.4 | 12.9 | 0.00 | 0.00 | 0.00 | ||
| 20260506221501 | 10 | 187 | 9.7 | 4.8 | 0.00 | 0.00 | 0.00 | ||
| 20260506221002 | 10 | 203 | 6.4 | 9.7 | 0.00 | 0.00 | 0.00 | ||
| 20260506220504 | 10 | 172 | 3.2 | 3.2 | 0.00 | 0.00 | 0.00 | ||
| 20260506215502 | 11 | 169 | 1.6 | 4.8 | 0.00 | 0.00 | 0.00 | ||
| 20260506215004 | 11 | 191 | 0.0 | 0.0 | 0.00 | 0.00 | 0.00 | ||
| 20260506214505 | 11 | 218 | 6.4 | 3.2 | 0.00 | 0.00 | 0.00 | ||
| 20260506214006 | 11 | 174 | 3.2 | 6.4 | 0.00 | 0.00 | 0.00 | ||
| 20260506213508 | 11 | 173 | 4.8 | 1.6 | 0.00 | 0.00 | 0.00 | ||
| 20260506213006 | 11 | 221 | 3.2 | 1.6 | 0.00 | 0.00 | 0.00 | ||
| 20260506210509 | 11 | 214 | 6.4 | 11.3 | 0.00 | 0.00 | 0.00 | ||
| 20260506204013 | 11 | 252 | 6.4 | 9.7 | 0.00 | 0.00 | 0.00 | ||
| 20260506203513 | 11 | 207 | 8.0 | 8.0 | 0.00 | 0.00 | 0.00 | ||
| 20260506202516 | 11 | 143 | 4.8 | 1.6 | 0.00 | 0.00 | 0.00 | ||
| 20260506202017 | 11 | 246 | 4.8 | 3.2 | 0.00 | 0.00 | 0.00 | ||
| 20260506201516 | 11 | 180 | 4.8 | 3.2 | 0.00 | 0.00 | 0.00 | ||
| 20260506201017 | 11 | 238 | 9.7 | 3.2 | 0.00 | 0.00 | 0.00 | ||
| 20260506200518 | 11 | 165 | 6.4 | 8.0 | 0.00 | 0.00 | 0.00 | ||
| 20260506200020 | 11 | 181 | 9.7 | 11.3 | 0.00 | 0.00 | 0.00 | ||
| 20260506195017 | 11 | 188 | 1.6 | 4.8 | 0.00 | 0.00 | 0.00 | ||
| 20260506194518 | 11 | 228 | 4.8 | 6.4 | 0.00 | 0.00 | 0.00 | ||
| 20260506194019 | 11 | 193 | 9.7 | 9.7 | 0.00 | 0.00 | 0.00 | ||
| 20260506193521 | 12 | 186 | 3.2 | 9.7 | 0.00 | 0.00 | 0.00 | ||
| 20260506192520 | 12 | 173 | 3.2 | 3.2 | 0.00 | 0.00 | 0.00 | ||
| 20260506191522 | 12 | 160 | 4.8 | 6.4 | 0.00 | 0.00 | 0.00 | ||
| 20260506190525 | 12 | 174 | 6.4 | 9.7 | 0.00 | 0.00 | 0.00 | ||
| 20260506185525 | 12 | 190 | 4.8 | 6.4 | 0.00 | 0.00 | 0.00 | ||
| 20260506185026 | 11 | 217 | 3.2 | 6.4 | 0.00 | 0.00 | 0.00 | ||
| 20260506183524 | 11 | 283 | 4.8 | 4.8 | 0.00 | 0.00 | 0.00 | ||
| 20260506183026 | 11 | 311 | 6.4 | 6.4 | 0.00 | 0.00 | 0.00 | ||
| 20260506182027 | 11 | 238 | 6.4 | 6.4 | 0.00 | 0.00 | 0.00 | ||
| 20260506181529 | 11 | 280 | 4.8 | 3.2 | 0.00 | 0.00 | 0.00 | ||
| 20260506181026 | 11 | 195 | 4.8 | 1.6 | 0.00 | 0.00 | 0.00 | ||
| 20260506180528 | 11 | 222 | 6.4 | 6.4 | 0.00 | 0.00 | 0.00 | ||
| 20260506180029 | 11 | 176 | 8.0 | 6.4 | 0.00 | 0.00 | 0.00 | ||
| 20260506175530 | 11 | 236 | 12.9 | 8.0 | 0.00 | 0.00 | 0.00 | ||
| 20260506175031 | 12 | 257 | 9.7 | 8.0 | 0.00 | 0.00 | 0.00 | ||
| 20260506174529 | 12 | 197 | 9.7 | 12.9 | 0.00 | 0.00 | 0.00 | ||
| 20260506174030 | 12 | 188 | 6.4 | 8.0 | 0.00 | 0.00 | 0.00 | ||
| 20260506173532 | 12 | 204 | 4.8 | 3.2 | 0.00 | 0.00 | 0.00 | ||
| 20260506173030 | 12 | 160 | 6.4 | 6.4 | 0.00 | 0.00 | 0.00 | ||
| 20260506172531 | 12 | 193 | 6.4 | 6.4 | 0.00 | 0.00 | 0.00 | ||
| 20260506172029 | 12 | 278 | 3.2 | 3.2 | 0.00 | 0.00 | 0.00 | ||
| 20260506171530 | 12 | 270 | 6.4 | 6.4 | 0.00 | 0.00 | 0.00 | ||
| 20260506171032 | 12 | 311 | 8.0 | 6.4 | 0.00 | 0.00 | 0.00 | ||
| 20260506170034 | 12 | 273 | 8.0 | 8.0 | 0.00 | 0.00 | 0.00 | ||
| 20260506164535 | 12 | 4 | 8.0 | 8.0 | 0.00 | 0.00 | 0.00 | ||
| 20260506164037 | 13 | 27 | 9.7 | 9.7 | 0.00 | 0.00 | 0.00 | ||
| 20260506163538 | 13 | 27 | 6.4 | 6.4 | 0.00 | 0.00 | 0.00 | ||
| 20260506162538 | 14 | 129 | 0.0 | 0.0 | 0.00 | 0.00 | 0.00 | ||
| 20260506161541 | 13 | 139 | 6.4 | 6.4 | 0.00 | 0.00 | 0.00 | ||
| 20260506161042 | 12 | 170 | 14.5 | 14.5 | 0.00 | 0.00 | 0.00 | ||
| 20260506160537 | 13 | 225 | 8.0 | 9.7 | 0.00 | 0.00 | 0.00 | ||
| 20260506160039 | 13 | 270 | 6.4 | 11.3 | 0.00 | 0.00 | 0.00 | ||
| 20260506155540 | 15 | 108 | 14.5 | 11.3 | 0.00 | 0.00 | 0.00 | ||
| 20260506154542 | 15 | 100 | 14.5 | 14.5 | 0.00 | 0.00 | 0.00 | ||
| 20260506153540 | 17 | 104 | 14.5 | 12.9 | 0.00 | 0.00 | 0.00 | ||
| 20260506152543 | 18 | 129 | 8.0 | 8.0 | 0.00 | 0.00 | 0.00 | ||
| 20260506151542 | 20 | 107 | 4.8 | 4.8 | 0.00 | 0.00 | 0.00 | ||
| 20260506150545 | 20 | 142 | 6.4 | 6.4 | 0.00 | 0.00 | 0.00 | ||
| 20260506150046 | 20 | 129 | 6.4 | 6.4 | 0.00 | 0.00 | 0.00 | ||
| 20260506145547 | 19 | 118 | 3.2 | 3.2 | 0.00 | 0.00 | 0.00 | ||
| 20260506144546 | 18 | 129 | 6.4 | 6.4 | 0.00 | 0.00 | 0.00 | ||
| 20260506144047 | 19 | 136 | 8.0 | 8.0 | 0.00 | 0.00 | 0.00 | ||
| 20260506143548 | 19 | 150 | 11.3 | 9.7 | 0.00 | 0.00 | 0.00 | ||
| 20260506141549 | 18 | 297 | 8.0 | 9.7 | 0.00 | 0.00 | 0.00 | ||
| 20260506140549 | 19 | 291 | 11.3 | 9.7 | 0.00 | 0.00 | 0.00 | ||
| 20260506140047 | 20 | 316 | 11.3 | 11.3 | 0.00 | 0.00 | 0.00 | ||
| 20260506135049 | 21 | 245 | 6.4 | 1.6 | 0.00 | 0.00 | 0.00 | ||
| 20260506134549 | 21 | 340 | 4.8 | 0.0 | 0.00 | 0.00 | 0.00 | ||
| 20260506133549 | 20 | 176 | 3.2 | 0.0 | 0.00 | 0.00 | 0.00 | ||
| 20260506132548 | 20 | 285 | 6.4 | 8.0 | 0.00 | 0.00 | 0.00 | ||
| 20260506132049 | 20 | 340 | 9.7 | 6.4 | 0.00 | 0.00 | 0.00 | ||
| 20260506131550 | 22 | 283 | 0.0 | 0.0 | 0.00 | 0.00 | 0.00 | ||
| 20260506131048 | 22 | 252 | 1.6 | 6.4 | 0.00 | 0.00 | 0.00 | ||
| 20260506130547 | 22 | 239 | 1.6 | 0.0 | 0.00 | 0.00 | 0.00 | ||
| 20260506130048 | 21 | 205 | 4.8 | 1.6 | 0.00 | 0.00 | 0.00 | ||
| 20260506125549 | 21 | 228 | 4.8 | 8.0 | 0.00 | 0.00 | 0.00 | ||
| 20260506125050 | 20 | 240 | 3.2 | 8.0 | 0.00 | 0.00 | 0.00 | ||
| 20260506124548 | 20 | 145 | 3.2 | 0.0 | 0.00 | 0.00 | 0.00 | ||
| 20260506123048 | 21 | 222 | 9.7 | 9.7 | 0.00 | 0.00 | 0.00 | ||
| 20260506122550 | 24 | 138 | 8.0 | 11.3 | 0.00 | 0.00 | 0.00 | ||
| 20260506122047 | 25 | 153 | 4.8 | 11.3 | 0.00 | 0.00 | 0.00 | ||
| 20260506121547 | 22 | 120 | 4.8 | 6.4 | 0.00 | 0.00 | 0.00 | ||
| 20260506121049 | 22 | 169 | 1.6 | 0.0 | 0.00 | 0.00 | 0.00 | ||
| 20260506120550 | 20 | 259 | 8.0 | 4.8 | 0.00 | 0.00 | 0.00 | ||
| 20260506120051 | 21 | 35 | 1.6 | 0.0 | 0.00 | 0.00 | 0.00 | ||
| 20260506115549 | 20 | 207 | 3.2 | 6.4 | 0.00 | 0.00 | 0.00 | ||
| 20260506114551 | 21 | 136 | 6.4 | 6.4 | 0.00 | 0.00 | 0.00 | ||
| 20260506114053 | 19 | 226 | 3.2 | 1.6 | 0.00 | 0.00 | 0.00 | ||
| 20260506113554 | 19 | 217 | 6.4 | 4.8 | 0.00 | 0.00 | 0.00 | ||
| 20260506113052 | 21 | 132 | 1.6 | 1.6 | 0.00 | 0.00 | 0.00 | ||
| 20260506112554 | 21 | 7 | 3.2 | 4.8 | 0.00 | 0.00 | 0.00 | ||
| 20260506111557 | 21 | 226 | 3.2 | 4.8 | 0.00 | 0.00 | 0.00 | ||
| 20260506111058 | 20 | 321 | 1.6 | 3.2 | 0.00 | 0.00 | 0.00 | ||
| 20260506110555 | 18 | 278 | 6.4 | 4.8 | 0.00 | 0.00 | 0.00 | ||
| 20260506105058 | 20 | 197 | 3.2 | 4.8 | 0.00 | 0.00 | 0.00 | ||
| 20260506102600 | 20 | 135 | 9.7 | 9.7 | 0.00 | 0.00 | 0.00 | ||
| 20260506102101 | 18 | 221 | 4.8 | 3.2 | 0.00 | 0.00 | 0.00 | ||
| 20260506101059 | 19 | 233 | 0.0 | 0.0 | 0.00 | 0.00 | 0.00 | ||
| 20260506095604 | 18 | 238 | 6.4 | 6.4 | 0.00 | 0.00 | 0.00 | ||
| 20260506094103 | 18 | 118 | 4.8 | 1.6 | 0.00 | 0.00 | 0.00 | ||
| 20260506093604 | 17 | 232 | 6.4 | 3.2 | 0.00 | 0.00 | 0.00 | ||
| 20260506093105 | 18 | 297 | 4.8 | 4.8 | 0.00 | 0.00 | 0.00 | ||
| 20260506091106 | 18 | 238 | 4.8 | 8.0 | 0.00 | 0.00 | 0.00 | ||
| 20260506085105 | 18 | 132 | 4.8 | 6.4 | 0.00 | 0.00 | 0.00 | ||
| 20260506084606 | 16 | 162 | 6.4 | 3.2 | 0.00 | 0.00 | 0.00 | ||
| 20260506083606 | 16 | 243 | 9.7 | 11.3 | 0.00 | 0.00 | 0.00 | ||
| 20260506082608 | 17 | 163 | 4.8 | 9.7 | 0.00 | 0.00 | 0.00 | ||
| 20260506082109 | 18 | 235 | 8.0 | 9.7 | 0.00 | 0.00 | 0.00 | ||
| 20260506081109 | 17 | 197 | 9.7 | 9.7 | 0.00 | 0.00 | 0.00 | ||
| 20260506080611 | 20 | 173 | 8.0 | 8.0 | 0.00 | 0.00 | 0.00 | ||
| 20260506080112 | 18 | 174 | 6.4 | 1.6 | 0.00 | 0.00 | 0.00 | ||
| 20260506072115 | 15 | 239 | 6.4 | 6.4 | 0.00 | 0.00 | 0.00 | ||
| 20260506071617 | 16 | 233 | 6.4 | 4.8 | 0.00 | 0.00 | 0.00 | ||
| 20260506071118 | 17 | 280 | 4.8 | 8.0 | 0.00 | 0.00 | 0.00 | ||
| 20260506070619 | 16 | 224 | 4.8 | 3.2 | 0.00 | 0.00 | 0.00 | ||
| 20260506062123 | 13 | 193 | 6.4 | 6.4 | 0.00 | 0.00 | 0.00 | ||
| 20260506061625 | 13 | 177 | 3.2 | 4.8 | 0.00 | 0.00 | 0.00 | ||
| 20260506060624 | 13 | 162 | 3.2 | 4.8 | 0.00 | 0.00 | 0.00 | ||
| 20260506060125 | 13 | 170 | 4.8 | 4.8 | 0.00 | 0.00 | 0.00 | ||
| 20260506050132 | 12 | 153 | 0.0 | 0.0 | 0.00 | 0.00 | 0.00 | ||
| 20260506045129 | 11 | 153 | 0.0 | 0.0 | 0.00 | 0.00 | 0.00 | ||
| 20260506044131 | 11 | 153 | 0.0 | 0.0 | 0.00 | 0.00 | 0.00 | ||
| 20260506043633 | 11 | 153 | 0.0 | 0.0 | 0.00 | 0.00 | 0.00 | ||
| 20260506043134 | 12 | 152 | 0.0 | 0.0 | 0.00 | 0.00 | 0.00 | ||
| 20260506042631 | 12 | 132 | 0.0 | 0.0 | 0.00 | 0.00 | 0.00 | ||
| 20260506042133 | 12 | 163 | 0.0 | 0.0 | 0.00 | 0.00 | 0.00 | ||
| 20260506040637 | 10 | 217 | 1.6 | 1.6 | 0.00 | 0.00 | 0.00 | ||
| 20260506035637 | 8 | 169 | 0.0 | 0.0 | 0.00 | 0.00 | 0.00 | ||
| 20260506035137 | 8 | 162 | 3.2 | 3.2 | 0.00 | 0.00 | 0.00 | ||
| 20260506034639 | 8 | 198 | 4.8 | 9.7 | 0.00 | 0.00 | 0.00 | ||
| 20260506034139 | 8 | 176 | 0.0 | 0.0 | 0.00 | 0.00 | 0.00 | ||
| 20260506033138 | 8 | 210 | 4.8 | 4.8 | 0.00 | 0.00 | 0.00 | ||
| 20260506032137 | 8 | 211 | 1.6 | 3.2 | 0.00 | 0.00 | 0.00 | ||
| 20260506030639 | 8 | 236 | 4.8 | 6.4 | 0.00 | 0.00 | 0.00 | ||
| 20260506030140 | 8 | 186 | 1.6 | 3.2 | 0.00 | 0.00 | 0.00 | ||
| 20260506025143 | 8 | 165 | 0.0 | 3.2 | 0.00 | 0.00 | 0.00 | ||
| 20260506024641 | 9 | 190 | 0.0 | 0.0 | 0.00 | 0.00 | 0.00 |